Regional Weather Roundup
Issued by NWS Sioux Falls, SD

Home | Current Version | Previous Version | Text Only | Print | Product List | Glossary On
Versions: 1 2 3 4 5 6 7 8 9 10 11 12 13 14 15 16 17 18 19 20 21 22 23 24 25 26 27 28 29 30 31 32 33 34 35 36 37 38 39 40 41 42 43 44 45 46 47 48 49 50
000
ASUS43 KFSD 252310
RWRFSD

WEATHER ROUNDUP FOR SE SOUTH DAKOTA/SW MINNESOTA/NW IOWA
NATIONAL WEATHER SERVICE SIOUX FALLS SD
500 PM CST THU DEC 25 2014

NOTE: "FAIR" INDICATES FEW OR NO CLOUDS BELOW 12,000 FEET WITH NO
SIGNIFICANT WEATHER AND OR OBSTRUCTIONS TO VISIBILITY.


SDZ038>040-050-052>070-260000-
SOUTHEAST SOUTH DAKOTA

CITY           SKY/WX    TMP DP  RH WIND       PRES   REMARKS
CHAMBERLAIN    LGT SNOW  28  26  92 N15G22    29.78R WCI  16
HURON          CLOUDY    27  23  85 N20G26    29.78R WCI  13
MADISON        FAIR      30  30 100 NE14      29.70R WCI  20
MITCHELL       CLOUDY    31  28  89 N20       29.76R WCI  19
SIOUX FALLS    CLOUDY    33  29  85 E13       29.72R WCI  24
WINNER         LGT SNOW  29  26  89 N22       29.76R VSB 3/4 WCI  15
YANKTON        CLOUDY    36  28  75 NE13      29.71R
$$

MNZ071-072-080-081-089-090-097-098-260000-
SOUTHWEST MINNESOTA

CITY           SKY/WX    TMP DP  RH WIND       PRES   REMARKS
FAIRMONT       CLOUDY    34  28  80 NE5       29.74R WCI  30
JACKSON        CLOUDY    34  30  86 NE8       29.73R WCI  27
LUVERNE        CLOUDY    34  30  86 NE13G18   29.72R WCI  25
MARSHALL       CLOUDY    30  27  86 N16       29.77R WCI  19
MONTEVIDEO     FLURRIES  30  30 100 NE12      29.80R WCI  21
PIPESTONE      CLOUDY    30  28  93 NE16G24   29.70R WCI  19
REDWOOD FALLS  CLOUDY    33  30  88 N6        29.78R WCI  28
TRACY          CLOUDY    32  31  98 NE13      29.75R FOG     WCI  22
WINDOM         CLOUDY    32  30  93 NE8       29.75R WCI  25
WORTHINGTON    CLOUDY    30 -17  12 NE16      29.72R WCI  19
$$

IAZ001>003-012>014-020>022-031-032-NEZ013-014-SDZ071-260000-
NORTHWEST IOWA

CITY           SKY/WX    TMP DP  RH WIND       PRES   REMARKS
CHEROKEE       CLEAR     36  32  87 E6        29.69R
DENISON        CLEAR     43  36  75 E5        29.64R
ESTHERVILLE    MOCLDY    32  30  92 NE6       29.72R WCI  26
LE MARS        PTCLDY    36  32  87 NE8       29.70R
ORANGE CITY    MOCLDY    36  30  80 E5        29.69R
SHELDON        MOCLDY    34  32  93 E8        29.70R WCI  27
SIOUX CITY     CLEAR     41  32  70 E5        29.67R
SPENCER        PTCLDY    34  29  82 NE6       29.72R WCI  29
STORM LAKE     CLEAR     34  32  93 E10       29.69R WCI  26
$$

ABBREVIATIONS USED IN REMARKS
   TC - TEMPERATURE IN CELSIUS
  WCI - WIND CHILL INDEX
   HX - HEAT INDEX
  VSB - VISIBILITY



USA.gov is the U.S. government's official web portal to all federal, state and local government web resources and services.